Location: Chaumontel
(49.1247°N, 2.4324°E)
Time: 07:34:41
(UTC+00:00)

SL-08 ROCKET BODY - Pass Details

Date: 03 February 2023
Orbit: 896 x 963 km, 82.9° (Epoch: 23 March)

Event Time Altitude Azimuth Distance (km) Brightness Sun altitude
Rises 17:29:54 0° 353° (N) 3,550 7.3 -6.9°
Reaches altitude 10° 17:32:25 10° 357° (N) 2,598 6.6 -7.3°
Maximum altitude 17:38:15 59° 77° (ENE) 1,030 4.4 -8.2°
Drops below altitude 10° 17:43:59 10° 157° (SSE) 2,564 6.6 -9.2°
Sets 17:46:28 0° 161° (SSE) 3,501 7.4 -9.5°
